Wind_Speed
10 11 7 6 2 4 2 5 12 12 12 13 9 13 13 12 5 4 32 33 30 20 24 23 22 21 21 20 18 15 14 14 14 13 13 14 12 12 13 14 14 12 11 12 11 11 10 10 10
10 11 9 4 3 2 3 13 16 16 17 21 16 21 11 6 7 24 46 37 24 20 23 24 23 20 20 19 17 15 14 14 14 12 13 13 13 13 14 14 13 13 12 12 12 12 11 11 12
11 10 4 3 3 3 3 13 15 20 17 13 8 7 6 7 18 45 36 35 24 22 18 24 22 20 20 19 16 14 14 13 13 12 12 13 13 15 14 13 12 12 13 12 11 11 11 10 10
10 5 8 2 8 12 8 15 18 19 15 21 21 11 12 16 29 24 47 30 24 24 19 23 23 20 20 18 15 14 13 13 12 11 11 12 13 13 14 14 14 13 12 12 11 10 9 8 7
12 6 2 2 20 14 12 16 22 15 21 16 24 13 17 16 21 30 39 26 22 25 21 24 22 21 20 17 14 13 12 11 10 11 11 11 11 12 12 14 14 13 13 13 11 10 8 8 8
8 6 3 9 12 12 11 20 23 18 25 20 26 25 13 24 32 42 29 27 26 23 22 25 22 20 18 16 15 13 11 10 10 9 10 10 10 11 12 13 14 14 14 13 13 12 11 11 7
16 10 6 11 15 9 11 16 8 25 18 22 24 19 21 35 34 36 27 27 23 24 23 24 21 20 17 16 15 13 11 9 9 9 9 10 10 11 11 12 12 12 13 12 12 12 13 14 13
23 11 16 13 7 16 12 16 10 24 22 25 28 11 28 37 37 32 29 25 25 28 23 20 21 20 17 16 14 12 10 9 9 10 12 14 14 12 10 10 10 10 11 10 11 10 11 13 14
17 6 7 12 14 6 14 16 20 20 22 16 14 32 40 37 37 32 30 28 27 29 22 21 20 16 12 14 14 12 10 9 9 11 8 5 7 7 6 9 8 9 8 10 11 8 7 11 11
17 3 5 9 12 5 13 16 17 15 16 22 33 35 37 35 37 32 31 31 33 27 25 22 20 17 13 12 11 10 9 8 9 10 6 6 4 6 5 5 8 10 9 8 9 7 4 12 9
24 8 12 14 20 16 9 30 19 19 15 33 36 39 38 35 33 31 28 26 28 31 27 24 22 18 15 18 8 6 6 5 4 6 6 9 8 8 4 1 5 10 12 9 4 8 3 7 4
19 20 17 24 20 22 20 22 19 14 25 27 32 37 40 36 34 31 30 28 29 30 28 26 27 20 18 18 8 7 6 9 9 3 6 2 5 3 5 9 1 5 5 8 7 7 4 5 13
21 21 32 27 10 28 29 25 3 21 27 28 32 35 36 35 31 29 28 28 28 27 27 28 27 22 21 15 12 12 10 9 8 8 4 7 3 3 2 4 7 8 8 4 5 5 3 6 6
25 21 17 17 27 19 14 25 12 14 27 31 34 35 37 36 35 33 33 30 29 28 26 29 25 23 25 20 15 11 13 9 8 4 8 4 6 2 3 2 2 3 7 4 2 6 6 3 2
28 19 17 17 17 13 14 10 9 21 28 28 32 34 32 36 37 36 38 36 30 30 28 28 27 22 27 24 20 16 11 8 10 5 10 10 8 1 3 4 4 3 6 5 2 4 3 6 2
25 21 17 21 21 17 16 14 15 39 24 28 31 33 33 31 33 35 38 37 32 29 31 27 22 22 22 26 23 21 13 11 9 8 11 7 5 7 3 2 4 6 2 2 1 1 3 4 7
21 20 22 21 22 18 18 12 25 21 27 31 29 31 34 32 31 31 31 32 31 29 31 31 25 25 22 23 21 19 14 14 11 10 9 10 7 6 5 3 3 5 3 2 1 1 2 3 3
23 22 19 24 21 24 22 20 21 21 28 22 32 30 33 35 35 33 31 31 32 31 31 31 27 25 25 21 21 16 17 17 15 12 10 14 11 9 6 3 4 3 4 5 3 2 5 5 3
24 20 24 22 22 23 20 16 20 12 19 33 33 32 32 34 34 34 32 32 31 33 33 32 31 28 29 24 23 22 21 19 17 15 13 14 15 11 10 8 5 4 3 4 0 6 9 3 3
27 24 25 23 25 14 21 17 26 25 42 33 31 31 33 31 34 36 35 35 35 36 35 35 35 33 29 28 24 23 20 18 16 16 16 19 18 13 12 10 7 7 4 4 2 2 7 4 8
28 27 24 21 21 24 18 16 20 27 21 31 31 46 34 34 35 36 38 38 37 38 39 38 37 36 36 30 26 20 19 19 20 17 17 20 18 13 11 10 11 10 6 7 3 6 5 7 3
27 27 26 25 19 17 22 16 20 16 21 25 36 34 33 35 36 37 40 39 40 39 41 40 38 40 38 36 27 30 29 26 24 21 18 19 16 14 17 13 12 11 10 6 3 3 6 5 4
25 25 26 26 20 18 20 17 14 21 21 21 23 28 35 36 38 39 40 42 42 40 40 41 39 39 39 38 33 28 28 28 21 22 20 19 22 21 17 17 14 14 13 11 6 9 8 7 7
24 22 25 23 18 17 23 19 17 17 21 19 21 27 38 38 40 40 40 39 40 40 41 40 40 39 39 37 39 32 31 28 26 22 24 22 22 21 18 19 19 18 12 17 14 17 13 12 10
21 22 14 15 17 17 22 20 13 19 24 23 22 30 31 41 41 40 41 41 43 42 42 41 41 41 39 39 38 40 33 29 29 26 24 24 24 23 22 17 25 23 18 18 15 14 12 12 14
28 26 15 22 18 17 22 23 20 21 20 36 35 34 32 34 41 44 44 44 45 44 45 44 45 43 40 39 42 38 41 36 32 32 26 27 24 23 23 20 21 20 21 16 21 19 16 16 15
26 26 24 22 20 16 19 20 23 24 23 19 16 32 34 35 38 43 44 46 46 46 47 49 47 46 42 41 41 41 38 42 40 36 34 26 26 23 23 23 22 22 19 24 23 23 21 17 17
28 22 21 17 21 20 19 23 19 22 22 22 18 18 29 35 36 41 43 45 46 49 51 49 49 49 45 41 41 42 40 39 40 37 38 34 27 25 19 23 25 24 21 24 23 26 24 22 24
22 21 25 20 16 15 14 14 15 25 25 21 22 23 23 32 38 39 42 44 47 48 47 49 48 48 47 44 42 44 45 42 40 40 38 36 36 30 29 21 26 27 23 23 27 28 25 26 27
29 28 25 12 21 15 14 5 12 5 23 20 18 30 30 27 38 38 40 43 44 44 46 49 48 47 50 48 45 44 46 46 44 43 42 40 37 34 36 34 27 30 27 22 27 32 31 29 30
Wind_Direction
169 162 173 207 259 228 223 181 85 81 78 96 118 114 110 38 153 143 147 149 144 131 141 137 136 140 142 141 137 132 119 112 103 98 97 95 87 84 83 79 79 82 93 93 89 96 91 65 70
162 172 200 269 250 263 212 83 83 91 120 102 97 132 97 83 111 135 148 151 133 141 140 140 140 144 143 139 141 133 123 114 105 98 92 90 91 85 83 81 81 81 87 93 91 85 79 73 75
178 196 267 198 313 260 69 86 132 123 117 120 101 79 71 100 122 139 150 140 135 137 148 144 144 144 147 143 141 132 125 117 108 102 93 94 95 88 82 86 88 85 88 95 97 92 86 78 72
177 204 259 267 235 267 150 174 102 124 118 110 118 74 81 127 134 140 150 135 144 142 164 148 147 148 148 147 139 134 127 120 126 114 101 101 101 91 87 88 88 88 91 94 101 98 84 74 69
190 227 292 30 277 227 127 121 135 137 131 125 110 103 111 128 140 156 146 145 150 141 169 152 150 153 151 145 143 137 129 126 120 110 107 110 105 98 92 96 95 94 96 98 100 95 82 69 71
207 150 125 236 212 139 117 139 121 116 119 119 110 117 128 138 143 145 146 141 153 145 163 156 155 156 153 148 147 141 134 124 113 108 111 110 107 102 100 100 103 101 98 95 87 83 77 60 56
224 251 227 298 294 83 115 80 125 132 137 120 133 116 130 143 145 148 143 153 140 153 162 159 159 161 157 153 154 146 137 122 114 115 106 93 91 91 94 101 103 104 99 90 83 78 79 59 45
243 283 341 325 352 101 97 106 140 96 112 133 141 143 146 147 151 150 151 148 154 159 173 160 167 162 161 159 159 148 141 119 123 115 110 107 104 86 91 104 105 108 99 89 74 79 76 61 71
251 292 315 334 336 99 114 103 90 104 130 140 142 145 150 148 153 153 153 159 157 163 164 165 161 158 159 165 160 154 142 131 126 104 97 114 116 126 97 92 100 102 94 84 70 78 95 79 90
231 111 251 264 272 352 324 122 132 130 129 118 116 132 149 152 157 162 164 164 166 167 164 169 164 162 166 168 163 154 145 127 117 105 118 128 193 86 96 88 90 98 91 91 94 37 43 65 98
238 182 222 241 263 219 18 302 148 137 138 128 136 146 155 158 162 162 167 165 167 168 168 171 172 167 168 189 183 136 122 123 119 128 168 166 134 180 132 116 87 89 74 72 88 81 61 56 25
232 229 193 293 277 171 140 319 142 160 136 136 148 153 158 163 165 166 168 171 173 175 175 172 179 173 177 191 198 163 192 180 188 184 188 39 84 122 59 156 356 124 94 43 33 49 19 103 36
238 246 186 204 232 153 108 274 242 134 137 138 150 158 160 165 169 171 171 179 177 180 177 174 182 182 179 175 180 184 192 180 201 215 210 179 75 125 346 36 108 105 116 32 42 104 101 91 73
232 233 235 218 212 178 176 195 144 164 141 144 155 164 165 170 171 175 176 182 192 178 181 177 183 189 188 179 191 186 184 196 190 230 270 225 161 212 63 125 105 75 87 86 347 98 144 173 108
241 244 243 246 243 240 213 132 200 135 145 153 162 167 173 173 175 178 183 181 185 179 183 186 188 203 203 192 190 187 191 193 208 192 243 268 198 262 251 165 71 82 29 50 66 109 304 71 88
248 245 226 218 236 224 217 210 114 135 218 162 165 171 175 181 178 178 184 185 180 180 187 186 187 203 208 201 196 190 180 205 207 214 252 277 213 196 193 232 68 112 79 340 1 227 229 146 120
239 237 236 240 213 224 208 210 143 185 276 163 170 174 176 182 185 184 184 181 182 183 187 188 191 198 211 202 203 198 188 206 215 216 229 261 262 218 206 223 334 122 204 127 58 107 325 332 173
229 219 227 234 202 208 227 226 170 161 229 201 176 178 178 182 189 186 189 188 186 189 192 192 197 197 211 211 198 209 190 216 200 216 218 247 255 235 207 226 222 170 81 131 254 245 183 76 192
235 225 222 227 235 208 224 180 162 142 302 272 172 176 186 182 187 185 191 190 188 188 194 197 194 195 208 206 206 194 207 212 215 204 210 240 253 237 235 228 282 204 227 180 27 135 122 136 144
230 240 227 230 221 205 228 214 171 160 194 239 156 196 183 179 183 187 189 190 192 191 196 198 197 198 202 209 212 202 205 214 226 216 214 223 242 225 239 232 220 228 270 186 131 172 162 187 184
225 231 243 226 243 185 217 239 205 190 172 141 255 191 176 178 183 187 186 192 192 192 197 202 203 200 205 207 201 204 204 211 225 222 222 232 236 230 247 232 207 211 198 250 200 162 181 179 222
222 226 242 254 228 224 195 214 213 223 218 177 205 175 176 180 185 189 190 193 192 196 199 206 209 205 209 204 203 202 200 208 208 226 224 231 233 220 236 235 223 227 196 227 205 210 190 204 231
226 217 229 248 257 248 229 229 211 211 221 205 180 187 179 185 186 190 194 195 196 195 195 203 213 214 210 211 198 210 209 209 218 213 224 224 232 232 222 232 235 235 223 216 199 220 213 194 177
218 226 215 231 245 245 242 216 225 226 211 219 190 201 184 182 186 189 193 196 198 197 197 200 211 217 215 216 209 203 216 208 208 218 214 219 220 228 234 220 230 240 225 203 215 240 246 200 198
209 214 212 210 217 232 234 244 242 224 195 203 201 195 196 179 182 185 186 193 193 198 197 198 205 215 219 218 220 211 207 219 208 214 215 217 219 225 235 232 224 239 236 210 225 230 242 213 211
209 212 216 212 211 217 238 228 231 252 262 196 200 185 198 186 178 182 187 190 193 198 197 199 204 216 221 219 222 220 216 216 216 209 213 215 215 225 233 235 231 236 243 229 215 228 234 243 224
203 216 216 228 223 223 218 225 252 226 245 249 219 189 187 188 178 181 184 188 192 195 200 200 206 216 219 220 220 222 219 221 226 216 209 215 222 216 230 233 231 233 238 232 219 220 235 240 239
220 198 216 229 235 228 223 218 215 218 218 222 222 209 196 185 180 180 182 188 193 196 200 202 205 215 220 220 220 222 223 222 223 224 218 210 210 220 227 231 232 239 248 225 219 223 226 233 240
210 212 209 228 233 238 251 229 210 200 202 206 208 210 225 192 180 183 184 187 196 197 196 203 204 213 220 224 225 223 225 225 225 225 227 222 216 212 214 227 235 239 247 226 219 225 225 234 235
210 216 207 220 213 243 265 277 10 230 178 200 206 204 203 217 178 181 184 187 192 195 198 201 205 206 220 226 226 228 228 229 230 228 230 232 229 227 224 221 229 240 245 240 227 227 224 227 242
Height
1497 1499 1501 1502 1506 1494 1486 1470 1453 1468 1474 1478 1479 1484 1490 1496 1499 1513 1515 1522 1528 1533 1536 1539 1542 1545 1548 1550 1552 1554 1555 1557 1558 1559 1560 1560 1561 1562 1563 1563 1564 1565 1566 1567 1567 1568 1569 1569 1569
1497 1502 1503 1502 1502 1495 1479 1453 1467 1471 1474 1478 1481 1484 1488 1499 1501 1504 1514 1525 1531 1536 1538 1541 1544 1547 1550 1552 1555 1556 1557 1558 1560 1561 1561 1562 1563 1564 1564 1565 1566 1567 1567 1568 1569 1570 1570 1570 1571
1501 1503 1504 1497 1499 1498 1477 1461 1465 1468 1474 1478 1483 1485 1488 1501 1504 1508 1518 1525 1534 1539 1541 1543 1546 1550 1552 1554 1556 1557 1559 1560 1562 1563 1563 1564 1565 1566 1566 1567 1567 1568 1569 1570 1571 1571 1572 1572 1572
1499 1505 1502 1494 1495 1477 1463 1464 1459 1470 1476 1480 1483 1490 1500 1504 1508 1513 1520 1528 1535 1539 1542 1545 1549 1552 1554 1556 1558 1559 1561 1562 1564 1564 1565 1566 1567 1568 1569 1569 1569 1570 1571 1571 1572 1573 1573 1573 1573
1499 1497 1499 1504 1487 1464 1456 1458 1459 1465 1473 1479 1484 1498 1504 1511 1514 1516 1523 1531 1537 1541 1543 1547 1550 1553 1556 1557 1560 1561 1563 1564 1565 1566 1567 1568 1569 1570 1570 1570 1571 1572 1573 1573 1574 1575 1575 1575 1575
1496 1493 1506 1496 1469 1450 1449 1454 1458 1466 1474 1482 1489 1499 1508 1513 1513 1520 1527 1532 1537 1541 1545 1548 1551 1554 1557 1559 1561 1563 1564 1565 1566 1567 1569 1570 1571 1571 1572 1572 1573 1574 1575 1576 1577 1577 1577 1577 1577
1489 1481 1481 1482 1464 1455 1448 1450 1453 1461 1466 1481 1490 1500 1509 1514 1518 1523 1529 1535 1539 1545 1547 1549 1552 1555 1558 1560 1562 1564 1566 1566 1567 1570 1572 1574 1574 1573 1573 1573 1573 1574 1576 1577 1578 1579 1580 1580 1578
1481 1473 1479 1468 1452 1453 1449 1454 1456 1462 1472 1480 1486 1498 1506 1513 1520 1525 1531 1537 1542 1546 1548 1551 1553 1556 1558 1561 1563 1565 1565 1566 1569 1573 1574 1572 1574 1576 1575 1575 1574 1575 1577 1579 1580 1581 1582 1582 1581
1480 1486 1496 1485 1468 1451 1449 1452 1464 1467 1473 1477 1484 1491 1505 1513 1521 1526 1532 1537 1542 1546 1550 1553 1554 1557 1560 1561 1564 1565 1566 1568 1574 1579 1578 1575 1575 1577 1578 1577 1576 1576 1577 1580 1582 1583 1583 1582 1583
1475 1489 1489 1482 1473 1459 1460 1455 1463 1468 1474 1480 1488 1501 1509 1515 1520 1525 1530 1535 1540 1546 1549 1553 1556 1559 1561 1563 1565 1566 1567 1571 1578 1580 1579 1579 1580 1585 1584 1582 1579 1577 1578 1581 1583 1583 1584 1583 1583
1466 1476 1472 1470 1472 1466 1470 1473 1460 1465 1472 1479 1490 1500 1508 1515 1520 1525 1530 1535 1538 1544 1548 1552 1556 1559 1562 1564 1566 1566 1568 1573 1577 1582 1563 1568 1585 1584 1582 1584 1585 1580 1579 1581 1583 1584 1585 1585 1584
1462 1457 1467 1467 1463 1466 1474 1476 1457 1461 1468 1478 1490 1497 1505 1513 1519 1524 1529 1534 1538 1542 1547 1551 1555 1558 1563 1565 1566 1567 1569 1573 1577 1577 1580 1581 1585 1580 1574 1577 1585 1583 1580 1582 1582 1584 1586 1585 1585
1453 1449 1457 1455 1457 1458 1463 1476 1462 1461 1469 1478 1489 1498 1505 1511 1519 1525 1530 1534 1537 1541 1546 1549 1552 1557 1561 1564 1566 1569 1570 1573 1575 1577 1579 1581 1582 1581 1584 1579 1583 1583 1582 1582 1584 1585 1585 1586 1586
1447 1446 1446 1445 1447 1446 1453 1465 1458 1465 1468 1477 1486 1494 1500 1507 1513 1521 1527 1531 1534 1540 1544 1547 1550 1555 1559 1562 1565 1567 1570 1571 1573 1574 1573 1575 1577 1579 1583 1583 1582 1583 1582 1584 1584 1585 1585 1587 1587
1443 1444 1443 1442 1442 1442 1444 1456 1455 1462 1471 1479 1484 1490 1495 1501 1508 1515 1521 1525 1530 1537 1543 1545 1549 1552 1557 1561 1563 1567 1570 1572 1572 1574 1572 1573 1575 1577 1578 1579 1579 1580 1581 1583 1585 1585 1586 1587 1588
1441 1438 1447 1436 1438 1437 1441 1455 1456 1459 1473 1477 1482 1486 1492 1498 1503 1509 1515 1522 1528 1533 1539 1544 1548 1550 1554 1559 1562 1565 1568 1571 1573 1574 1574 1574 1575 1576 1577 1579 1580 1582 1584 1584 1585 1586 1586 1587 1587
1441 1448 1442 1435 1430 1435 1435 1446 1455 1472 1478 1467 1477 1481 1487 1495 1501 1507 1513 1519 1524 1530 1535 1541 1546 1549 1551 1557 1560 1563 1566 1570 1572 1574 1575 1574 1575 1577 1577 1579 1581 1583 1584 1584 1585 1586 1586 1586 1588
1446 1443 1437 1437 1425 1429 1430 1434 1443 1459 1467 1462 1467 1477 1481 1488 1495 1502 1509 1516 1521 1527 1533 1538 1543 1549 1550 1555 1559 1562 1565 1568 1570 1573 1574 1573 1575 1576 1577 1578 1581 1582 1583 1583 1585 1585 1586 1586 1588
1430 1430 1434 1422 1416 1422 1426 1430 1444 1458 1467 1468 1458 1470 1479 1481 1490 1498 1506 1513 1518 1524 1529 1534 1540 1545 1547 1551 1555 1559 1561 1565 1568 1570 1573 1572 1574 1575 1576 1578 1580 1581 1583 1583 1584 1585 1586 1587 1587
1429 1428 1424 1417 1409 1417 1422 1425 1440 1447 1448 1464 1458 1473 1472 1476 1485 1492 1500 1507 1513 1518 1523 1529 1535 1540 1544 1547 1551 1556 1560 1563 1565 1568 1571 1572 1572 1574 1575 1577 1578 1580 1582 1582 1583 1584 1585 1587 1587
1425 1427 1420 1417 1407 1409 1420 1429 1422 1435 1439 1438 1462 1454 1459 1466 1478 1487 1494 1500 1507 1512 1517 1523 1529 1535 1540 1544 1550 1554 1558 1561 1563 1564 1567 1569 1571 1573 1573 1575 1577 1578 1580 1581 1582 1584 1584 1585 1587
1428 1417 1415 1411 1412 1428 1411 1446 1423 1419 1422 1433 1436 1441 1450 1459 1470 1481 1487 1495 1501 1507 1512 1517 1523 1529 1534 1541 1545 1549 1552 1555 1558 1561 1564 1566 1568 1570 1571 1574 1575 1576 1579 1581 1581 1583 1583 1584 1586
1415 1411 1416 1413 1414 1414 1411 1424 1414 1412 1417 1416 1422 1429 1440 1451 1460 1472 1481 1488 1494 1501 1507 1512 1517 1524 1529 1534 1540 1544 1547 1551 1555 1558 1560 1563 1564 1567 1569 1571 1572 1574 1577 1579 1581 1581 1582 1583 1584
1405 1409 1412 1415 1416 1430 1413 1420 1420 1409 1411 1409 1413 1422 1430 1441 1452 1462 1474 1483 1491 1497 1502 1506 1511 1517 1524 1528 1534 1539 1542 1547 1550 1553 1556 1559 1561 1563 1566 1568 1569 1571 1574 1577 1579 1579 1580 1581 1582
1400 1411 1432 1438 1433 1431 1410 1416 1405 1390 1393 1401 1405 1415 1422 1431 1442 1454 1465 1474 1482 1489 1495 1501 1505 1510 1517 1522 1527 1533 1537 1541 1545 1549 1552 1555 1557 1558 1560 1563 1565 1567 1571 1573 1575 1576 1577 1579 1580
1395 1400 1415 1443 1436 1433 1410 1416 1402 1387 1385 1389 1396 1407 1417 1423 1432 1444 1455 1464 1473 1482 1487 1493 1497 1502 1508 1515 1519 1525 1531 1535 1539 1544 1547 1550 1554 1555 1556 1557 1560 1562 1565 1569 1572 1573 1574 1575 1577
1389 1396 1390 1408 1401 1415 1405 1402 1391 1385 1385 1385 1388 1396 1405 1414 1424 1436 1445 1456 1464 1473 1480 1484 1489 1493 1499 1505 1512 1517 1523 1528 1531 1537 1542 1546 1550 1552 1554 1555 1556 1559 1561 1564 1567 1569 1571 1573 1573
1369 1381 1407 1399 1426 1424 1400 1393 1394 1385 1382 1383 1386 1390 1397 1406 1417 1428 1439 1450 1457 1463 1470 1478 1484 1486 1491 1498 1505 1509 1514 1520 1525 1530 1535 1539 1544 1548 1550 1550 1551 1554 1556 1559 1562 1565 1567 1569 1569
1373 1377 1386 1390 1394 1412 1410 1384 1348 1362 1366 1373 1381 1387 1394 1399 1409 1420 1431 1442 1449 1456 1465 1472 1479 1483 1488 1494 1497 1503 1506 1512 1519 1523 1527 1533 1538 1542 1545 1547 1546 1549 1552 1555 1557 1559 1562 1563 1565
1359 1369 1371 1392 1404 1388 1384 1377 1349 1341 1354 1366 1373 1380 1391 1396 1403 1413 1424 1434 1444 1452 1458 1463 1472 1479 1480 1485 1492 1496 1502 1507 1511 1516 1521 1526 1530 1535 1539 1543 1544 1545 1548 1550 1551 1553 1556 1558 1558